RH
32 30 38 41 47 51 48 44 42 46 49 48 48 54 54 56 55 57 54 51 77 85 76 93 89 94 90 100 100 100 100 100 100 100 100 97 94 97 100 100 95 80 83
45 40 33 35 40 40 39 40 47 50 46 51 50 46 46 54 54 50 50 65 93 85 90 97 94 88 90 98 100 100 100 100 100 100 100 100 97 99 98 93 80 78 78
52 51 47 42 38 34 34 35 40 42 42 50 57 54 59 53 52 57 72 83 96 78 90 89 78 92 98 99 100 100 100 99 100 100 99 98 100 100 94 83 79 73 58
48 50 54 52 47 45 40 41 40 38 43 45 46 50 54 66 64 73 86 95 100 90 84 83 94 100 100 100 100 100 100 100 99 100 100 100 100 97 92 81 62 40 20
47 49 41 46 53 55 54 50 46 46 46 46 45 49 53 58 65 72 92 100 100 100 100 85 98 100 100 100 100 100 100 99 100 100 100 100 96 88 77 60 37 10 5
30 30 38 42 48 52 57 60 64 63 57 56 57 61 67 71 78 89 98 100 100 88 91 99 99 99 98 99 98 99 100 100 100 99 99 95 87 74 56 27 7 8 26
21 26 33 38 38 42 53 69 73 77 83 81 82 86 87 91 95 97 100 100 100 100 100 100 100 100 100 100 100 100 100 100 100 98 97 88 66 44 10 6 8 11 25
23 23 29 34 36 43 55 68 81 91 97 99 99 100 100 98 99 100 99 100 100 100 100 100 100 100 100 100 100 100 100 99 98 95 71 52 21 6 7 8 7 7 13
25 27 31 38 46 51 59 69 89 100 100 100 100 100 100 100 100 100 100 100 100 100 100 100 100 100 100 100 100 100 99 97 93 66 34 9 6 7 8 7 10 24 29
27 34 41 49 56 61 74 97 100 100 100 100 100 100 100 100 100 100 100 100 100 100 100 100 100 100 100 100 100 98 98 96 60 17 8 9 9 10 8 9 10 12 24
42 50 56 64 70 86 98 99 100 100 100 100 100 100 100 100 100 100 100 100 100 100 100 100 100 100 100 99 98 97 89 40 10 8 9 10 11 9 9 9 11 13 15
67 76 85 95 100 99 99 100 100 100 100 100 100 100 100 100 100 100 100 100 100 100 100 100 100 98 98 97 95 68 22 8 9 11 13 12 11 10 10 10 11 12 13
94 100 99 99 100 100 100 100 99 100 100 100 100 100 100 100 100 100 100 100 100 100 99 97 98 96 95 79 42 11 12 20 20 23 20 15 13 14 19 28 17 14 14
100 99 99 100 100 100 100 100 100 100 100 100 100 100 100 100 100 100 100 100 100 99 98 98 95 82 42 16 25 46 39 28 22 22 20 21 32 52 45 21 18 18 18
100 100 100 100 100 100 100 100 100 99 98 94 96 99 99 99 100 100 100 99 98 97 96 95 60 27 17 25 33 37 35 35 33 43 77 92 92 78 38 24 25 31 45
100 99 100 100 100 98 93 91 95 94 98 100 100 100 99 99 98 98 98 97 97 96 89 40 25 43 54 75 94 94 91 92 95 95 94 94 84 46 34 33 42 73 86
100 100 100 95 94 95 100 100 99 99 98 98 98 98 97 97 97 96 96 86 57 52 82 94 95 95 96 96 96 96 96 95 95 95 91 64 50 52 46 62 86 100 100
97 98 98 100 100 99 98 98 97 97 97 96 96 96 96 96 96 95 94 94 95 94 94 94 95 95 96 96 96 96 95 95 94 75 62 58 58 65 80 97 100 100 100
99 99 98 96 97 97 97 96 96 96 96 96 96 96 95 95 95 95 94 94 93 93 93 94 94 95 95 96 96 96 91 83 79 75 72 64 69 81 99 100 100 100 100
97 98 97 97 97 96 96 96 95 95 95 95 95 95 95 94 92 91 91 91 93 95 96 97 97 96 95 94 93 92 93 96 99 100 100 99 97 100 100 100 100 100 100
96 96 96 95 95 95 95 94 94 94 94 94 94 95 95 93 92 93 93 92 93 93 94 97 97 96 95 94 96 100 95 92 93 92 93 100 100 100 100 100 100 100 100
94 94 94 94 94 92 90 92 93 94 95 96 96 96 96 94 93 91 89 88 88 90 90 88 86 83 81 81 83 86 88 88 85 82 94 100 100 100 100 100 100 100 100
89 88 88 89 90 92 91 92 92 93 92 92 89 82 75 71 71 72 74 76 77 76 74 73 72 72 75 75 75 76 74 74 75 79 100 100 100 100 100 100 100 100 100
91 89 88 85 78 67 60 57 58 60 60 60 60 61 62 64 67 70 71 71 70 68 67 66 67 67 67 67 68 71 74 75 77 84 86 91 97 100 100 100 100 100 100
34 37 38 39 39 40 42 43 46 48 51 54 57 58 59 60 61 61 61 60 60 59 60 62 65 67 67 68 74 76 75 74 75 79 86 95 100 100 100 100 100 100 100
25 27 29 32 35 39 42 46 48 50 51 51 52 54 56 57 58 59 61 63 65 64 63 65 68 69 68 69 74 74 72 71 75 88 98 100 100 100 100 100 100 100 100
Wind_Speed
35 35 37 38 39 40 39 38 38 39 40 39 37 40 41 43 43 42 43 44 40 39 49 48 39 34 36 37 35 36 37 33 34 29 24 21 21 23 23 25 27 27 28
38 39 39 39 39 39 39 41 42 44 39 33 41 40 40 42 41 43 46 45 39 39 36 29 32 32 32 34 32 34 34 33 30 25 21 21 23 22 23 23 24 25 28
42 42 42 42 40 41 42 41 41 37 36 42 34 39 36 40 46 46 42 43 37 31 36 31 34 33 33 31 32 30 29 27 23 22 21 22 20 21 22 25 25 25 24
38 41 44 44 44 45 44 42 42 40 40 40 41 38 36 30 34 37 40 39 36 32 33 31 30 29 28 26 25 26 24 22 20 20 20 19 20 22 25 25 23 25 26
30 33 34 38 42 44 46 45 45 44 44 45 44 45 44 43 46 47 42 33 37 35 36 34 30 24 22 21 21 21 21 21 21 20 19 19 21 23 22 22 25 25 27
27 27 30 31 33 36 37 40 41 43 46 48 49 47 49 50 46 41 33 31 32 34 33 32 28 24 22 21 22 22 22 22 21 19 19 20 22 21 23 24 25 24 19
28 29 30 30 28 28 31 33 33 35 35 39 43 43 41 36 35 29 33 36 35 34 33 28 25 21 21 22 22 22 21 20 19 17 19 21 20 22 23 24 24 24 23
31 31 31 29 27 27 29 28 29 30 31 31 29 29 29 28 24 28 29 30 27 24 24 23 21 21 21 21 22 22 20 18 17 18 18 20 20 21 23 24 25 26 26
32 34 34 31 28 27 26 26 24 22 23 28 29 31 30 27 29 29 26 25 24 23 21 20 20 21 22 24 21 18 15 16 17 17 19 20 21 22 22 24 22 22 24
34 34 33 29 27 22 20 18 19 21 25 26 26 28 28 24 22 20 20 21 21 20 20 21 23 22 21 19 15 13 14 16 16 17 17 18 19 19 21 21 23 24 22
32 29 27 25 23 18 14 17 18 20 23 25 25 23 21 19 19 16 15 15 16 18 21 22 20 17 13 12 13 14 15 16 16 17 17 18 18 19 20 22 22 23 24
25 23 21 19 16 15 15 17 18 19 22 22 23 23 20 17 16 14 13 12 15 15 15 12 11 11 12 13 15 15 16 16 15 17 17 18 20 20 21 22 23 26 27
21 22 19 19 16 14 17 20 18 19 20 20 17 15 16 17 16 17 17 15 14 11 10 9 9 12 14 16 16 14 15 15 16 18 19 20 21 21 23 26 27 27 28
20 21 20 18 17 17 16 16 16 16 15 13 15 16 16 16 15 15 14 13 11 10 9 9 11 12 12 13 12 15 17 18 18 19 19 20 22 25 25 25 27 27 28
21 22 20 19 19 20 19 16 13 13 9 9 10 10 11 12 13 11 11 10 10 9 9 8 9 11 13 14 15 16 17 18 18 19 22 24 24 24 25 25 24 24 25
20 21 21 20 19 17 16 18 16 13 12 9 9 11 14 11 11 11 10 9 9 7 8 8 9 12 14 17 19 20 20 21 21 22 22 23 23 23 24 23 22 21 22
22 23 21 20 21 21 19 17 18 17 14 11 9 9 7 7 5 4 5 7 7 9 13 15 14 14 14 15 15 17 17 19 21 22 23 23 22 21 22 21 20 19 20
19 19 17 16 18 19 19 18 16 14 14 13 9 4 0 3 4 6 8 11 10 11 10 10 11 11 12 14 16 17 19 21 22 23 23 22 21 21 20 19 18 19 19
20 21 22 22 20 19 16 14 12 10 9 7 5 2 1 1 1 3 5 7 7 8 8 9 11 12 14 15 18 20 21 23 24 24 24 22 20 19 19 18 18 19 21
24 21 20 18 15 13 11 10 9 8 8 7 5 3 2 3 4 6 7 7 6 7 8 9 12 14 16 18 20 22 22 23 21 19 19 18 18 16 17 17 17 19 19
19 17 15 14 13 12 11 10 9 9 8 7 5 2 2 3 4 5 6 6 7 9 10 13 15 17 20 21 22 22 24 25 24 23 21 18 16 16 16 17 18 18 19
16 15 14 13 12 11 10 9 8 7 6 5 3 0 2 4 4 6 7 9 11 13 15 17 18 20 21 23 24 25 26 25 24 22 19 17 15 16 17 17 18 18 18
14 13 12 12 11 10 9 8 7 5 4 2 1 3 5 6 7 8 9 10 12 13 15 16 17 18 19 20 21 22 23 23 22 20 18 17 18 17 16 18 17 18 18
11 10 10 10 9 8 8 7 6 4 3 3 4 5 6 7 8 9 10 11 13 14 16 17 18 19 19 19 18 19 20 21 20 19 19 20 20 18 17 18 18 19 20
10 10 9 9 8 8 7 6 5 5 4 4 5 5 6 7 8 10 11 13 14 15 16 17 18 18 18 18 19 19 19 20 19 19 19 19 18 17 18 19 19 20 20
10 10 10 10 10 9 8 7 6 6 5 5 6 6 7 8 10 11 13 14 15 16 16 16 17 18 19 19 19 18 18 17 16 16 17 16 15 16 17 19 20 21 21
Wind_Direction
222 221 220 221 221 222 226 227 229 232 234 237 248 247 248 246 246 249 255 263 273 278 275 266 263 265 253 267 269 263 256 252 255 252 249 253 261 261 264 276 283 286 283
228 226 227 228 227 227 229 229 231 233 232 237 242 248 254 249 247 250 258 268 270 280 262 263 268 283 271 268 263 260 259 257 250 249 253 256 261 263 276 281 279 285 285
231 231 232 231 232 235 236 236 237 236 233 239 249 253 258 248 252 257 265 267 268 249 261 263 271 267 266 261 258 256 248 245 243 250 258 261 265 274 282 283 280 281 282
237 237 237 238 238 239 239 240 239 239 238 244 244 249 255 254 258 265 274 270 264 254 254 264 274 265 260 257 252 244 240 240 249 253 254 260 271 281 285 284 284 288 289
238 238 240 244 246 245 245 246 245 244 245 246 246 249 251 255 259 266 275 262 262 258 258 260 268 253 249 245 237 235 241 246 244 245 254 269 285 286 283 285 292 296 299
241 240 240 242 246 250 253 253 252 251 249 251 252 252 254 256 259 268 267 267 253 252 256 259 244 235 231 227 238 238 235 235 238 249 263 280 285 283 288 291 297 302 310
235 239 239 239 243 251 257 255 253 251 252 253 256 257 259 263 264 268 269 262 255 252 251 234 228 223 233 236 232 223 224 233 245 260 278 283 281 284 289 294 297 299 298
239 237 238 238 241 246 251 254 252 250 250 254 258 261 261 259 262 261 253 253 242 232 224 222 229 236 230 233 229 226 230 242 262 281 282 282 283 287 293 296 300 300 302
245 238 236 237 238 238 242 247 249 255 256 252 258 255 251 247 253 243 241 228 215 211 216 222 225 227 229 220 219 223 240 269 283 281 282 284 289 293 296 298 301 301 305
241 237 233 230 231 234 240 246 247 246 245 243 237 239 241 238 228 221 216 212 213 215 220 217 213 215 211 214 226 250 277 283 278 279 284 289 292 293 296 299 299 299 300
233 228 222 217 216 219 218 226 233 238 237 237 232 219 205 196 192 200 206 221 229 225 214 206 204 207 217 240 264 277 279 278 280 286 289 290 296 296 298 295 294 295 295
215 210 203 199 190 187 198 212 217 225 223 209 196 179 175 181 191 191 196 202 202 202 192 197 216 244 268 283 281 279 282 286 289 293 296 297 296 295 293 294 296 293 290
191 184 185 179 181 195 202 200 197 194 188 178 178 189 180 175 177 168 169 173 180 196 212 231 260 276 275 274 280 286 292 295 295 297 298 296 294 295 298 298 294 292 292
174 167 168 173 168 168 171 172 171 173 182 189 184 181 171 169 177 180 187 197 210 219 231 247 255 264 272 279 288 299 297 297 297 297 294 293 297 300 300 298 298 299 298
161 157 157 160 160 159 156 152 157 162 169 181 176 177 177 180 183 195 205 210 221 230 242 261 271 278 281 283 288 292 289 289 289 291 294 296 298 299 297 297 299 299 298
156 152 155 154 149 149 153 150 148 157 159 164 172 183 178 189 199 211 218 227 242 271 290 282 282 285 282 282 284 285 288 291 294 297 299 301 300 296 296 298 300 299 298
148 147 152 155 156 155 151 149 147 124 132 132 144 148 142 162 170 234 280 303 308 290 286 287 284 283 285 286 289 293 297 299 301 302 304 301 296 294 298 299 300 299 298
152 148 143 133 132 129 124 117 112 114 121 116 117 117 169 309 317 311 304 296 295 298 299 297 295 293 293 295 297 298 300 303 305 305 303 299 296 297 297 298 300 300 299
120 115 116 113 108 109 110 111 110 112 113 117 115 100 86 36 305 295 294 301 306 307 306 304 298 297 297 297 298 301 303 304 303 303 302 297 294 293 292 294 295 297 298
100 104 109 109 109 107 106 104 108 115 127 136 147 159 227 275 293 303 307 309 306 298 298 295 292 293 295 297 298 299 300 303 304 304 299 294 293 291 294 297 297 296 297
100 100 100 106 105 105 103 104 115 126 135 144 150 176 267 300 315 319 319 316 306 302 296 291 293 295 297 298 300 301 302 302 303 302 299 295 292 292 293 292 294 296 299
94 96 98 99 102 104 104 110 118 122 128 135 136 181 309 321 322 314 308 304 300 298 297 298 300 302 303 304 304 304 304 304 304 301 297 294 293 292 296 297 296 299 302
86 90 93 97 98 101 105 105 107 110 109 104 29 331 328 325 319 313 309 306 307 308 309 309 309 308 307 307 307 306 305 304 302 300 296 292 295 297 298 297 298 301 303
82 87 88 90 89 89 89 86 80 70 47 0 337 332 330 327 324 322 320 319 318 317 316 316 315 314 313 313 312 309 306 304 301 297 294 295 298 301 299 300 301 302 304
71 76 81 80 76 70 63 61 54 42 26 8 357 349 341 334 328 326 325 322 321 320 319 318 316 315 314 314 314 312 309 306 302 298 297 296 298 300 302 304 306 305 305
67 67 66 67 68 65 59 54 50 44 36 26 14 1 347 338 333 329 326 323 321 320 319 318 316 314 313 313 313 312 312 308 302 298 296 295 296 300 304 305 307 307 309